GW3390 Weather Reports


time (UTC)temp
C
wind
direction
speed
KPH
gust
KPH
rain 1hr
cm
rain 24hr
cm
rain mn
cm
humidity
%
barometer
mb
20260906114059 21 0 0.0 0.0 0.00 1.45 0.00 94 1012.8
20260906113558 21 0 0.0 0.0 0.00 1.45 0.00 94 1012.7
20260906113100 21 0 0.0 0.0 0.00 1.45 0.00 94 1012.6
20260906112559 21 0 0.0 0.0 0.00 1.45 0.00 93 1012.4
20260906112059 21 0 0.0 0.0 0.00 1.45 0.00 94 1012.4
20260906111626 21 0 0.0 0.0 0.00 1.45 0.00 94 1012.5
20260906111103 21 0 0.0 0.0 0.00 1.45 0.00 93 1012.4
20260906110604 21 0 0.0 0.0 0.00 1.45 0.00 93 1012.3
20260906105559 21 0 0.0 0.0 0.00 1.45 0.00 93 1012.3
20260906105102 21 0 0.0 1.6 0.00 1.45 0.00 93 1012.4
20260906104606 21 0 0.0 1.6 0.00 1.45 0.00 93 1012.4
20260906104059 21 0 0.0 0.0 0.00 1.45 0.00 93 1012.4
20260906103559 21 0 0.0 0.0 0.00 1.45 0.00 92 1012.3
20260906103101 21 0 0.0 0.0 0.00 1.45 0.00 92 1012.4
20260906102559 21 0 0.0 0.0 0.00 1.45 0.00 92 1012.3
20260906102059 21 0 0.0 0.0 0.00 1.45 0.00 92 1012.3
20260906101600 21 0 0.0 0.0 0.00 1.45 0.00 92 1012.3
20260906101101 21 0 0.0 3.2 0.00 1.45 0.00 92 1012.2
20260906100559 21 0 0.0 8.0 0.00 1.45 0.00 92 1012.4
20260906100103 21 175 1.6 8.0 0.00 1.45 0.00 91 1012.3
20260906095559 21 0 1.6 4.8 0.00 1.45 0.00 91 1012.4
20260906095100 21 0 0.0 1.6 0.00 1.45 0.00 91 1012.4
20260906094558 21 0 0.0 1.6 0.00 1.45 0.00 90 1012.3
20260906094100 21 0 0.0 3.2 0.00 1.45 0.00 90 1012.2
20260906093559 22 0 0.0 4.8 0.00 1.45 0.00 90 1012.3
20260906093108 22 191 1.6 4.8 0.00 1.45 0.00 90 1012.2
20260906092600 22 0 0.0 6.4 0.00 1.45 0.00 89 1012.2
20260906092102 22 0 0.0 6.4 0.00 1.45 0.00 89 1012.3
20260906091604 22 0 0.0 1.6 0.00 1.45 0.00 89 1012.2
20260906091059 22 0 0.0 3.2 0.00 1.45 0.00 89 1012.3
20260906090600 22 0 0.0 8.0 0.00 1.45 0.00 89 1012.2
20260906090115 22 0 1.6 14.5 0.00 1.45 0.00 88 1012.3
20260906085559 22 200 3.2 14.5 0.00 1.45 0.00 88 1012.1
20260906085059 22 0 0.0 8.0 0.00 1.45 0.00 88 1012.1
20260906084613 22 0 1.6 6.4 0.00 1.45 0.00 87 1012.2
20260906084058 22 315 0.0 9.7 0.00 1.45 0.00 87 1012.2
20260906083600 22 0 1.6 11.3 0.00 1.45 0.00 87 1012.1
20260906083106 22 157 3.2 11.3 0.00 1.45 0.00 87 1012.0
20260906082559 22 146 3.2 9.7 0.00 1.45 0.00 87 1012.1
20260906082100 22 196 1.6 9.7 0.00 1.45 0.00 86 1012.0
20260906081621 22 191 0.0 9.7 0.00 1.45 0.00 86 1012.0
20260906081059 22 90 1.6 8.0 0.00 1.45 0.00 85 1011.9
20260906080600 22 217 1.6 12.9 0.00 1.45 0.00 85 1011.9
20260906080103 22 194 3.2 14.5 0.00 1.45 0.00 85 1011.8
20260906075559 23 144 6.4 14.5 0.00 1.45 0.00 85 1012.0
20260906075102 23 189 6.4 17.7 0.00 1.45 0.00 84 1012.0
20260906074612 23 220 6.4 22.5 0.00 1.45 0.00 84 1012.0
20260906074059 23 183 8.0 22.5 0.00 1.45 0.00 84 1012.0
20260906073602 23 205 11.3 20.9 0.00 1.45 0.00 84 1012.0
20260906073110 23 165 6.4 17.7 0.00 1.45 0.00 85 1012.0
20260906072601 23 234 6.4 17.7 0.00 1.45 0.00 85 1012.0
20260906072103 23 173 6.4 17.7 0.00 1.45 0.00 87 1012.1
20260906071600 23 165 4.8 12.9 0.00 1.45 0.00 88 1012.2
20260906071059 22 144 6.4 14.5 0.00 1.45 0.00 88 1012.2
20260906070600 22 159 4.8 14.5 0.00 1.45 0.00 88 1012.2
20260906070134 22 187 6.4 14.5 0.00 1.45 0.00 87 1012.4
20260906065602 22 174 4.8 14.5 0.00 1.45 0.00 87 1012.4
20260906065100 22 224 9.7 14.5 0.00 1.45 0.00 87 1012.4
20260906064602 22 169 8.0 14.5 0.00 1.45 0.00 87 1012.3
20260906064059 22 179 6.4 14.5 0.00 1.45 0.00 87 1012.2
20260906063559 22 187 6.4 12.9 0.00 1.45 0.00 87 1012.4
20260906063104 22 176 6.4 12.9 0.00 1.45 0.00 88 1012.5
20260906062600 23 170 3.2 9.7 0.00 1.45 0.00 88 1012.5
20260906062100 23 164 0.0 9.7 0.00 1.45 0.00 88 1012.7
20260906061635 23 192 3.2 14.5 0.00 1.45 0.00 88 1012.7
20260906061102 23 171 6.4 14.5 0.00 1.45 0.00 88 1012.7
20260906060602 23 207 6.4 14.5 0.00 1.45 0.00 88 1013.1
20260906060100 23 217 6.4 14.5 0.00 1.45 0.00 89 1013.0
20260906055603 23 190 6.4 14.5 0.00 1.45 0.00 90 1013.0
20260906055059 23 199 3.2 9.7 0.00 1.45 0.00 91 1013.2
20260906054600 23 134 0.0 8.0 0.00 1.45 0.00 91 1013.3
20260906054059 23 0 3.2 11.3 0.00 1.45 0.00 91 1013.5
20260906053600 23 258 3.2 11.3 0.00 1.45 0.00 91 1013.5
20260906053101 23 202 4.8 9.7 0.00 1.45 0.00 91 1013.5
20260906052600 23 183 4.8 8.0 0.00 1.45 0.00 91 1013.3
20260906052100 23 167 0.0 8.0 0.00 1.45 0.00 91 1013.3
20260906051601 23 193 3.2 8.0 0.00 1.45 0.00 91 1013.3
20260906051059 23 0 0.0 6.4 0.00 1.45 0.00 92 1013.3
20260906050559 23 163 3.2 8.0 0.00 1.45 0.00 92 1013.3
20260906050115 23 154 3.2 8.0 0.00 1.45 0.00 92 1013.3
20260906045600 23 117 0.0 8.0 0.00 1.45 1.45 91 1013.5
20260906045059 23 51 0.0 12.9 0.00 1.45 1.45 91 1013.7
20260906044603 23 51 6.4 22.5 0.03 1.45 1.45 91 1013.8
20260906044058 22 0 8.0 22.5 0.03 1.45 1.45 92 1013.3
20260906043600 22 50 11.3 22.5 0.10 1.45 1.45 90 1014.0
20260906043111 22 30 1.6 9.7 0.28 1.45 1.45 89 1013.1
20260906042559 22 167 6.4 9.7 0.51 1.45 1.45 88 1012.6
20260906042103 23 0 0.0 8.0 0.58 1.45 1.45 87 1012.9
20260906041600 23 46 3.2 9.7 0.61 1.45 1.45 88 1013.1
20260906041102 23 117 4.8 9.7 0.61 1.45 1.45 86 1012.5
20260906040603 23 139 1.6 8.0 0.61 1.45 1.45 88 1013.0
20260906040116 23 225 0.0 12.9 0.61 1.45 1.45 89 1012.8
20260906035600 23 155 4.8 12.9 0.61 1.45 1.45 90 1012.8
20260906035059 23 124 6.4 16.1 0.61 1.45 1.45 92 1013.1
20260906034619 23 0 4.8 20.9 0.58 1.42 1.42 91 1013.3
20260906034059 23 24 4.8 32.2 0.58 1.42 1.42 91 1013.4
20260906033600 23 40 11.3 32.2 0.51 1.32 1.32 91 1013.6
20260906033102 23 39 8.0 19.3 0.36 1.17 1.17 90 1013.8
20260906032602 23 16 8.0 25.7 0.13 0.94 0.94 91 1013.7
20260906032102 22 355 8.0 25.7 0.05 0.86 0.86 92 1013.4
20260906031607 22 355 4.8 14.5 0.08 0.84 0.84 94 1013.1
20260906031059 22 0 0.0 4.8 0.20 0.84 0.84 93 1012.1
20260906030559 22 0 1.6 4.8 0.25 0.84 0.84 93 1012.1
20260906030108 22 0 0.0 4.8 0.25 0.84 0.84 92 1012.1
20260906025559 22 0 0.0 6.4 0.25 0.84 0.84 92 1012.0
20260906025059 22 179 1.6 6.4 0.25 0.84 0.84 92 1012.1
20260906024558 22 179 3.2 6.4 0.25 0.84 0.84 92 1012.0
20260906024103 22 167 1.6 6.4 0.25 0.84 0.84 92 1012.0
20260906023600 22 165 3.2 6.4 0.25 0.84 0.84 92 1011.7
20260906023130 22 123 0.0 8.0 0.23 0.81 0.81 91 1011.8
20260906022559 22 145 1.6 8.0 0.23 0.81 0.81 90 1012.0
20260906022101 22 65 1.6 8.0 0.23 0.81 0.81 90 1012.2
20260906021558 22 210 0.0 11.3 0.18 0.76 0.76 89 1012.1
20260906021100 22 360 6.4 11.3 0.05 0.64 0.64 88 1012.3
20260906020559 22 9 1.6 4.8 0.00 0.58 0.58 91 1012.1
20260906020108 22 53 1.6 3.2 0.00 0.58 0.58 92 1011.8
20260906015559 22 53 0.0 1.6 0.00 0.58 0.58 91 1011.5
20260906015059 22 0 0.0 3.2 0.00 0.58 0.58 91 1011.3
20260906014626 22 190 0.0 6.4 0.00 0.58 0.58 91 1011.3
20260906014059 22 190 1.6 6.4 0.00 0.58 0.58 89 1011.3
20260906013559 22 196 1.6 6.4 0.00 0.58 0.58 90 1011.3
20260906013101 22 148 0.0 12.9 0.00 0.58 0.58 92 1011.3
20260906012601 22 43 1.6 12.9 0.00 0.58 0.58 91 1011.4
20260906012059 22 198 0.0 11.3 0.00 0.58 0.58 92 1011.5
20260906011603 22 0 0.0 1.6 0.00 0.58 0.58 92 1011.4
20260906011100 22 0 0.0 3.2 0.00 0.58 0.58 91 1011.3
20260906010559 22 0 0.0 8.0 0.13 0.58 0.58 91 1011.2
20260906005558 22 177 1.6 8.0 0.58 0.58 0.58 90 1010.9
20260906005101 22 101 0.0 3.2 0.58 0.58 0.58 90 1010.9
20260906004613 22 0 0.0 3.2 0.58 0.58 0.58 88 1011.0
20260906004102 22 0 0.0 3.2 0.58 0.58 0.58 89 1011.1
20260906003559 22 101 0.0 3.2 0.58 0.58 0.58 87 1011.2
20260906003104 22 101 0.0 6.4 0.58 0.58 0.58 85 1011.2
20260906002559 23 0 3.2 11.3 0.58 0.58 0.58 84 1011.4
20260906002059 23 32 1.6 14.5 0.58 0.58 0.58 82 1011.5
20260906001603 23 25 4.8 14.5 0.58 0.58 0.58 81 1011.5
20260906001059 24 322 4.8 17.7 0.58 0.58 0.58 78 1011.6
20260906000559 25 107 4.8 66.0 0.46 0.46 0.46 73 1011.8
20260906000111 26 109 14.5 66.0 0.15 0.15 0.15 72 1011.6
20260905235559 28 67 14.5 32.2 0.00 0.00 0.00 67 1012.2
20260905235101 28 17 16.1 38.6 0.00 0.00 0.00 56 1012.9
20260905234605 29 27 14.5 38.6 0.00 0.00 0.00 59 1012.1
20260905234059 31 36 17.7 32.2 0.00 0.00 0.00 58 1011.8
20260905233602 32 47 14.5 24.1 0.00 0.00 0.00 58 1011.7
20260905233104 32 12 1.6 16.1 0.00 0.00 0.00 62 1011.3
20260905232559 32 159 4.8 16.1 0.00 0.00 0.00 61 1010.8
20260905232059 32 157 1.6 8.0 0.00 0.00 0.00 61 1010.9
20260905231603 32 0 0.0 3.2 0.00 0.00 0.00 63 1010.7
20260905231058 32 0 0.0 1.6 0.00 0.00 0.00 64 1010.6
20260905230600 32 0 0.0 1.6 0.00 0.00 0.00 59 1010.6
20260905230108 33 0 0.0 3.2 0.00 0.00 0.00 60 1010.6
20260905225559 33 132 0.0 9.7 0.00 0.00 0.00 60 1010.7
20260905225100 33 69 0.0 9.7 0.00 0.00 0.00 61 1010.9
20260905224608 33 0 0.0 3.2 0.00 0.00 0.00 60 1011.0
20260905224059 33 38 0.0 3.2 0.00 0.00 0.00 59 1010.9
20260905223559 34 0 0.0 3.2 0.00 0.00 0.00 57 1011.0
20260905223106 34 0 0.0 3.2 0.00 0.00 0.00 57 1011.0
20260905222600 34 153 0.0 4.8 0.00 0.00 0.00 56 1010.9
20260905222100 33 88 0.0 6.4 0.00 0.00 0.00 56 1011.0
20260905221559 33 0 1.6 6.4 0.00 0.00 0.00 55 1010.9
20260905221100 33 12 1.6 8.0 0.00 0.00 0.00 55 1010.9
20260905220559 33 66 0.0 8.0 0.00 0.00 0.00 53 1011.0
20260905220121 33 42 1.6 4.8 0.00 0.00 0.00 55 1011.0
20260905215600 34 0 1.6 6.4 0.00 0.00 0.00 55 1011.0
20260905215059 33 0 1.6 8.0 0.00 0.00 0.00 57 1010.9
20260905214605 33 43 3.2 8.0 0.00 0.00 0.00 56 1010.8
20260905214059 33 55 3.2 8.0 0.00 0.00 0.00 57 1010.8
20260905213600 33 40 1.6 4.8 0.00 0.00 0.00 59 1010.8
20260905213108 33 51 0.0 4.8 0.00 0.00 0.00 57 1010.8
20260905212559 33 0 0.0 9.7 0.00 0.00 0.00 57 1010.9
20260905212059 33 78 3.2 9.7 0.00 0.00 0.00 60 1010.8
20260905211604 33 59 3.2 11.3 0.00 0.00 0.00 59 1010.8
20260905211100 33 36 4.8 16.1 0.00 0.00 0.00 60 1010.9
20260905210600 33 26 6.4 16.1 0.00 0.00 0.00 58 1011.1
20260905210104 34 17 6.4 17.7 0.00 0.00 0.00 56 1011.3
20260905205600 34 44 6.4 17.7 0.00 0.00 0.00 56 1011.1
20260905205059 34 16 1.6 6.4 0.00 0.00 0.00 57 1011.2
20260905204605 33 81 0.0 6.4 0.00 0.00 0.00 55 1011.3
20260905204102 33 0 0.0 6.4 0.00 0.00 0.00 60 1011.4
20260905203600 34 24 0.0 4.8 0.00 0.00 0.00 57 1011.4
20260905203107 34 0 1.6 11.3 0.00 0.00 0.00 54 1011.6
20260905202600 34 0 3.2 11.3 0.00 0.00 0.00 55 1011.7
20260905202100 35 49 3.2 9.7 0.00 0.00 0.00 54 1011.7
20260905201603 35 37 0.0 6.4 0.00 0.00 0.00 53 1011.8
20260905201059 35 26 3.2 6.4 0.00 0.00 0.00 53 1011.8
20260905200559 35 0 0.0 6.4 0.00 0.00 0.00 55 1011.8
20260905200100 35 0 0.0 6.4 0.00 0.00 0.00 54 1011.8
20260905195600 35 341 0.0 4.8 0.00 0.00 0.00 53 1011.9
20260905195102 35 11 0.0 4.8 0.00 0.00 0.00 55 1012.0
20260905194607 36 57 1.6 4.8 0.00 0.00 0.00 51 1012.0
20260905194101 36 61 1.6 9.7 0.00 0.00 0.00 49 1012.1
20260905193559 36 243 1.6 9.7 0.00 0.00 0.00 50 1012.3
20260905193101 36 59 3.2 8.0 0.00 0.00 0.00 49 1012.3
20260905192600 36 5 1.6 4.8 0.00 0.00 0.00 51 1012.2
20260905192102 36 12 0.0 6.4 0.00 0.00 0.00 53 1012.2
20260905191603 36 341 1.6 8.0 0.00 0.00 0.00 49 1012.3
20260905191101 36 9 3.2 8.0 0.00 0.00 0.00 47 1012.5
20260905190601 36 0 1.6 6.4 0.00 0.00 0.00 50 1012.5
20260905190113 36 0 1.6 6.4 0.00 0.00 0.00 51 1012.4
20260905185601 36 304 0.0 8.0 0.00 0.00 0.00 49 1012.5
20260905185059 36 257 3.2 8.0 0.00 0.00 0.00 48 1012.7
20260905184604 36 360 1.6 8.0 0.00 0.00 0.00 48 1012.7
20260905184056 36 171 3.2 8.0 0.00 0.00 0.00 53 1012.7
20260905183603 36 245 3.2 6.4 0.00 0.00 0.00 52 1012.8
20260905183124 36 309 1.6 4.8 0.00 0.00 0.00 50 1012.9
20260905182559 36 302 1.6 4.8 0.00 0.00 0.00 50 1013.1
20260905182100 35 267 0.0 6.4 0.00 0.00 0.00 51 1013.2
20260905181606 35 306 0.0 6.4 0.00 0.00 0.00 53 1013.4
20260905181103 35 25 1.6 6.4 0.00 0.00 0.00 55 1013.4
20260905180600 35 314 1.6 6.4 0.00 0.00 0.00 55 1013.6
20260905175559 35 360 1.6 8.0 0.00 0.00 0.00 57 1013.6
20260905175059 35 238 0.0 8.0 0.00 0.00 0.00 57 1013.7
20260905174605 35 32 0.0 4.8 0.00 0.00 0.00 57 1013.7
20260905174100 35 338 0.0 4.8 0.00 0.00 0.00 56 1013.7
20260905173559 35 272 1.6 4.8 0.00 0.00 0.00 56 1013.7
20260905173103 35 312 1.6 4.8 0.00 0.00 0.00 59 1013.8
20260905172558 35 269 1.6 4.8 0.00 0.00 0.00 58 1013.8
20260905172100 35 167 1.6 4.8 0.00 0.00 0.00 59 1013.8
20260905171605 34 34 0.0 4.8 0.00 0.00 0.00 60 1014.0
20260905171059 34 5 0.0 4.8 0.00 0.00 0.00 58 1013.9
20260905170559 34 156 1.6 6.4 0.00 0.00 0.00 58 1013.9
20260905165602 33 348 1.6 6.4 0.00 0.00 0.00 62 1014.1
20260905165059 33 246 1.6 4.8 0.00 0.00 0.00 61 1014.0
20260905164615 33 5 1.6 4.8 0.00 0.00 0.00 62 1014.0
20260905164058 33 0 1.6 4.8 0.00 0.00 0.00 62 1014.2
20260905163600 33 313 0.0 4.8 0.00 0.00 0.00 63 1014.2
20260905163106 32 0 1.6 6.4 0.00 0.00 0.00 64 1014.3
20260905162600 32 0 1.6 6.4 0.00 0.00 0.00 63 1014.3
20260905162059 32 328 0.0 4.8 0.00 0.00 0.00 63 1014.4
20260905161613 32 0 0.0 4.8 0.00 0.00 0.00 65 1014.4
20260905161100 32 0 1.6 4.8 0.00 0.00 0.00 65 1014.4
20260905160559 32 217 0.0 4.8 0.00 0.00 0.00 66 1014.5
20260905160123 32 5 0.0 3.2 0.00 0.00 0.00 66 1014.6
20260905155559 32 5 1.6 4.8 0.00 0.00 0.00 66 1014.5
20260905155059 31 0 0.0 4.8 0.00 0.00 0.00 67 1014.6
20260905154607 31 0 0.0 3.2 0.00 0.00 0.00 69 1014.6
20260905154101 31 0 0.0 3.2 0.00 0.00 0.00 71 1014.7
20260905153558 31 0 0.0 3.2 0.00 0.00 0.00 71 1014.7
20260905153115 30 5 0.0 3.2 0.00 0.00 0.00 72 1014.7
20260905152600 30 0 0.0 3.2 0.00 0.00 0.00 72 1014.7
20260905152103 30 0 0.0 4.8 0.00 0.00 0.00 74 1014.7
20260905151609 30 0 0.0 4.8 0.00 0.00 0.00 75 1014.8
20260905151100 30 0 0.0 4.8 0.00 0.00 0.00 75 1014.8
20260905150559 29 0 0.0 6.4 0.00 0.00 0.00 76 1014.8
20260905150101 29 0 1.6 6.4 0.00 0.00 0.00 75 1014.8
20260905145556 28 156 1.6 4.8 0.00 0.00 0.00 77 1014.9
20260905145102 28 281 0.0 3.2 0.00 0.00 0.00 81 1014.9
20260905144602 27 0 0.0 1.6 0.00 0.00 0.00 82 1014.9
20260905144059 27 0 0.0 3.2 0.00 0.00 0.00 82 1014.9
20260905143559 27 0 0.0 3.2 0.00 0.00 0.00 82 1015.0
20260905143100 27 0 0.0 1.6 0.00 0.00 0.00 83 1015.0
20260905142559 27 0 0.0 1.6 0.00 0.00 0.00 82 1015.0
20260905142059 26 261 0.0 3.2 0.00 0.00 0.00 83 1014.9
20260905141559 26 261 0.0 3.2 0.00 0.00 0.00 82 1014.9
20260905141059 26 0 0.0 6.4 0.00 0.00 0.00 83 1014.9
20260905140559 26 0 1.6 6.4 0.00 0.00 0.00 83 1014.8
20260905140108 26 166 1.6 6.4 0.00 0.00 0.00 83 1014.9
20260905135559 26 165 1.6 4.8 0.00 0.00 0.00 83 1015.0
20260905135059 26 0 0.0 3.2 0.00 0.00 0.00 83 1015.0
20260905134601 26 0 0.0 4.8 0.00 0.00 0.00 83 1014.9
20260905134100 26 182 0.0 4.8 0.00 0.00 0.00 83 1014.9
20260905133600 26 195 0.0 4.8 0.00 0.00 0.00 83 1015.0
20260905133106 26 0 0.0 0.0 0.00 0.00 0.00 84 1015.0
20260905132559 26 0 0.0 0.0 0.00 0.00 0.00 84 1015.1
20260905132100 26 0 0.0 0.0 0.00 0.00 0.00 85 1015.0
20260905131610 26 0 0.0 0.0 0.00 0.00 0.00 85 1015.0
20260905131059 26 0 0.0 0.0 0.00 0.00 0.00 85 1015.1
20260905130559 25 0 0.0 0.0 0.00 0.00 0.00 86 1015.1
20260905130110 25 0 0.0 0.0 0.00 0.00 0.00 86 1015.0
20260905125559 25 0 0.0 0.0 0.00 0.00 0.00 86 1015.0
20260905125059 25 0 0.0 0.0 0.00 0.00 0.00 86 1015.1
20260905124603 25 0 0.0 0.0 0.00 0.00 0.00 87 1015.1
20260905124059 25 0 0.0 0.0 0.00 0.00 0.00 87 1015.1
20260905123559 25 0 0.0 0.0 0.00 0.00 0.00 88 1015.1
20260905123102 24 0 0.0 0.0 0.00 0.00 0.00 89 1015.0
20260905122600 24 0 0.0 0.0 0.00 0.00 0.00 90 1015.0
20260905122100 23 0 0.0 0.0 0.00 0.00 0.00 90 1015.0
20260905121602 23 0 0.0 0.0 0.00 0.00 0.00 90 1014.9
20260905121059 23 0 0.0 0.0 0.00 0.00 0.00 90 1014.9
20260905120600 23 0 0.0 0.0 0.00 0.00 0.00 90 1014.9
20260905120112 23 0 0.0 0.0 0.00 0.00 0.00 90 1014.8
20260905115601 23 0 0.0 0.0 0.00 0.00 0.00 91 1014.9
20260905115100 23 0 0.0 0.0 0.00 0.00 0.00 91 1014.7
20260905114606 23 0 0.0 0.0 0.00 0.00 0.00 91 1014.7